Time,TemperatureF,DewpointF,PressureIn,WindDirection,WindDirectionDegrees,WindSpeedMPH,WindSpeedGustMPH,Humidity,HourlyPrecipIn,Conditions,Clouds,dailyrainin,SolarRadiationWatts/m^2,SoftwareType,DateUTC
2013-04-23 00:00:00,56.8,51.0,30.15,NNE,29,0.0,5.0,82,0.00,,,0.00,0,weatherlink.com 1.10,2013-04-23 04:00:00,
2013-04-23 00:15:00,56.4,51.0,30.15,North,7,0.0,2.0,82,0.00,,,0.00,0,weatherlink.com 1.10,2013-04-23 04:15:00,
2013-04-23 00:30:00,56.1,51.0,30.15,NE,36,0.0,1.0,82,0.00,,,0.00,0,weatherlink.com 1.10,2013-04-23 04:30:00,
2013-04-23 00:45:00,55.9,51.0,30.15,North,350,0.0,2.0,82,0.00,,,0.00,0,weatherlink.com 1.10,2013-04-23 04:45:00,
2013-04-23 01:00:00,55.7,51.0,30.15,NW,324,0.0,1.0,83,0.00,,,0.00,0,weatherlink.com 1.10,2013-04-23 05:00:00,
2013-04-23 01:15:00,55.4,51.0,30.14,NE,50,0.0,1.0,84,0.00,,,0.00,0,weatherlink.com 1.10,2013-04-23 05:15:00,
2013-04-23 01:30:00,55.0,50.0,30.14,North,350,0.0,2.0,84,0.00,,,0.00,0,weatherlink.com 1.10,2013-04-23 05:30:00,
2013-04-23 01:45:00,54.6,50.0,30.14,North,10,0.0,1.0,85,0.00,,,0.00,0,weatherlink.com 1.10,2013-04-23 05:45:00,
2013-04-23 02:00:00,54.1,50.0,30.14,North,3,0.0,2.0,85,0.00,,,0.00,0,weatherlink.com 1.10,2013-04-23 06:00:00,
2013-04-23 02:15:00,53.6,50.0,30.14,North,359,0.0,1.0,87,0.00,,,0.00,0,weatherlink.com 1.10,2013-04-23 06:15:00,
2013-04-23 02:30:00,53.2,50.0,30.13,North,353,1.0,4.0,88,0.00,,,0.00,0,weatherlink.com 1.10,2013-04-23 06:30:00,
2013-04-23 02:45:00,53.0,50.0,30.12,North,1,2.0,5.0,89,0.00,,,0.00,0,weatherlink.com 1.10,2013-04-23 06:45:00,
2013-04-23 03:00:00,52.7,50.0,30.12,NNW,345,2.0,7.0,89,0.00,,,0.00,0,weatherlink.com 1.10,2013-04-23 07:00:00,
2013-04-23 03:15:00,52.7,50.0,30.12,North,354,2.0,7.0,90,0.00,,,0.00,0,weatherlink.com 1.10,2013-04-23 07:15:00,
2013-04-23 03:30:00,53.0,50.0,30.12,ESE,107,1.0,6.0,90,0.00,,,0.00,0,weatherlink.com 1.10,2013-04-23 07:30:00,
2013-04-23 03:45:00,53.6,51.0,30.12,NNW,347,2.0,7.0,90,0.00,,,0.00,0,weatherlink.com 1.10,2013-04-23 07:45:00,
2013-04-23 04:00:00,54.0,51.0,30.13,NNE,16,7.0,9.0,89,0.00,,,0.00,0,weatherlink.com 1.10,2013-04-23 08:00:00,
2013-04-23 04:15:00,54.4,51.0,30.13,North,356,2.0,7.0,89,0.00,,,0.00,0,weatherlink.com 1.10,2013-04-23 08:15:00,
2013-04-23 04:30:00,54.8,51.0,30.13,North,355,5.0,9.0,88,0.00,,,0.00,0,weatherlink.com 1.10,2013-04-23 08:30:00,
2013-04-23 04:45:00,54.7,51.0,30.13,North,7,4.0,9.0,88,0.00,,,0.00,0,weatherlink.com 1.10,2013-04-23 08:45:00,
2013-04-23 05:00:00,54.8,51.0,30.13,North,6,7.0,10.0,88,0.00,,,0.00,0,weatherlink.com 1.10,2013-04-23 09:00:00,
2013-04-23 05:15:00,55.0,52.0,30.13,NNE,15,8.0,10.0,88,0.00,,,0.00,0,weatherlink.com 1.10,2013-04-23 09:15:00,
2013-04-23 05:30:00,54.8,51.0,30.13,NNE,14,3.0,11.0,88,0.00,,,0.00,0,weatherlink.com 1.10,2013-04-23 09:30:00,
2013-04-23 05:45:00,54.7,51.0,30.13,North,6,6.0,7.0,87,0.00,,,0.00,0,weatherlink.com 1.10,2013-04-23 09:45:00,
2013-04-23 06:00:00,54.8,51.0,30.13,North,10,4.0,13.0,88,0.00,,,0.00,0,weatherlink.com 1.10,2013-04-23 10:00:00,
2013-04-23 06:15:00,54.8,51.0,30.13,NNE,24,2.0,13.0,87,0.00,,,0.00,0,weatherlink.com 1.10,2013-04-23 10:15:00,
2013-04-23 06:30:00,54.7,51.0,30.14,North,354,9.0,14.0,87,0.00,,,0.00,0,weatherlink.com 1.10,2013-04-23 10:30:00,
2013-04-23 06:45:00,54.6,51.0,30.14,NNW,347,3.0,11.0,87,0.00,,,0.00,0,weatherlink.com 1.10,2013-04-23 10:45:00,
2013-04-23 07:00:00,54.6,51.0,30.14,North,360,9.0,14.0,87,0.00,,,0.00,11,weatherlink.com 1.10,2013-04-23 11:00:00,
2013-04-23 07:15:00,54.7,51.0,30.15,North,353,8.0,11.0,87,0.00,,,0.00,21,weatherlink.com 1.10,2013-04-23 11:15:00,
2013-04-23 07:30:00,54.6,51.0,30.15,North,11,5.0,16.0,87,0.00,,,0.00,32,weatherlink.com 1.10,2013-04-23 11:30:00,
2013-04-23 07:45:00,54.5,51.0,30.16,North,7,3.0,15.0,88,0.00,,,0.00,47,weatherlink.com 1.10,2013-04-23 11:45:00,
2013-04-23 08:01:00,54.4,51.0,30.16,North,360,6.0,16.0,88,0.00,,,0.00,63,weatherlink.com 1.10,2013-04-23 12:01:00,
2013-04-23 08:16:00,54.8,51.0,30.16,North,358,6.0,11.0,88,0.00,,,0.00,107,weatherlink.com 1.10,2013-04-23 12:16:00,
2013-04-23 08:31:00,55.0,52.0,30.17,North,8,7.0,14.0,88,0.00,,,0.00,202,weatherlink.com 1.10,2013-04-23 12:31:00,
2013-04-23 08:46:00,55.7,52.0,30.17,NNW,343,8.0,15.0,87,0.00,,,0.00,185,weatherlink.com 1.10,2013-04-23 12:46:00,
2013-04-23 09:01:00,55.6,52.0,30.17,North,3,6.0,14.0,88,0.00,,,0.00,181,weatherlink.com 1.10,2013-04-23 13:01:00,
2013-04-23 09:16:00,55.6,52.0,30.18,NNE,20,1.0,11.0,87,0.00,,,0.00,236,weatherlink.com 1.10,2013-04-23 13:16:00,
2013-04-23 09:31:00,56.1,52.0,30.18,ENE,78,3.0,9.0,87,0.00,,,0.00,278,weatherlink.com 1.10,2013-04-23 13:31:00,
2013-04-23 09:46:00,56.3,52.0,30.18,North,7,3.0,8.0,86,0.00,,,0.00,237,weatherlink.com 1.10,2013-04-23 13:46:00,
2013-04-23 10:01:00,56.7,53.0,30.18,North,356,3.0,8.0,87,0.00,,,0.00,269,weatherlink.com 1.10,2013-04-23 14:01:00,
2013-04-23 10:16:00,56.3,52.0,30.18,North,357,5.0,13.0,86,0.00,,,0.00,279,weatherlink.com 1.10,2013-04-23 14:16:00,
2013-04-23 10:31:00,55.9,52.0,30.18,North,1,8.0,13.0,86,0.00,,,0.00,348,weatherlink.com 1.10,2013-04-23 14:31:00,
2013-04-23 10:46:00,56.6,53.0,30.19,NNE,20,9.0,13.0,86,0.00,,,0.00,392,weatherlink.com 1.10,2013-04-23 14:46:00,
2013-04-23 11:01:00,57.5,54.0,30.19,NNW,328,3.0,10.0,87,0.00,,,0.00,485,weatherlink.com 1.10,2013-04-23 15:01:00,
2013-04-23 11:16:00,57.7,53.0,30.19,North,1,3.0,11.0,84,0.00,,,0.00,631,weatherlink.com 1.10,2013-04-23 15:16:00,
2013-04-23 11:31:00,58.0,53.0,30.19,North,6,3.0,12.0,83,0.00,,,0.00,490,weatherlink.com 1.10,2013-04-23 15:31:00,
2013-04-23 11:46:00,58.7,54.0,30.20,North,6,7.0,12.0,83,0.00,,,0.00,404,weatherlink.com 1.10,2013-04-23 15:46:00,
2013-04-23 12:01:00,59.1,54.0,30.19,North,8,4.0,11.0,82,0.00,,,0.00,434,weatherlink.com 1.10,2013-04-23 16:01:00,
2013-04-23 12:16:00,59.6,54.0,30.19,North,355,6.0,10.0,81,0.00,,,0.00,617,weatherlink.com 1.10,2013-04-23 16:16:00,
2013-04-23 12:31:00,60.0,54.0,30.18,North,1,9.0,11.0,80,0.00,,,0.00,529,weatherlink.com 1.10,2013-04-23 16:31:00,
2013-04-23 12:46:00,60.4,54.0,30.18,North,2,3.0,11.0,80,0.00,,,0.00,446,weatherlink.com 1.10,2013-04-23 16:46:00,
2013-04-23 13:01:00,60.8,55.0,30.18,North,11,3.0,10.0,80,0.00,,,0.00,397,weatherlink.com 1.10,2013-04-23 17:01:00,
2013-04-23 13:16:00,60.6,55.0,30.18,NNE,12,7.0,12.0,81,0.00,,,0.00,439,weatherlink.com 1.10,2013-04-23 17:16:00,
2013-04-23 13:31:00,61.4,55.0,30.17,North,355,5.0,9.0,80,0.00,,,0.00,461,weatherlink.com 1.10,2013-04-23 17:31:00,
2013-04-23 13:46:00,62.1,55.0,30.16,NNW,331,2.0,9.0,77,0.00,,,0.00,415,weatherlink.com 1.10,2013-04-23 17:46:00,
2013-04-23 14:01:00,62.2,55.0,30.16,NNW,340,5.0,11.0,78,0.00,,,0.00,380,weatherlink.com 1.10,2013-04-23 18:01:00,
2013-04-23 14:17:00,62.5,56.0,30.16,NNW,341,4.0,9.0,78,0.00,,,0.00,316,weatherlink.com 1.10,2013-04-23 18:17:00,
2013-04-23 14:32:00,62.7,56.0,30.15,North,352,6.0,8.0,78,0.00,,,0.00,323,weatherlink.com 1.10,2013-04-23 18:32:00,
2013-04-23 14:47:00,62.6,55.0,30.15,North,358,3.0,9.0,77,0.00,,,0.00,230,weatherlink.com 1.10,2013-04-23 18:47:00,
2013-04-23 15:02:00,62.9,56.0,30.15,SSE,168,5.0,7.0,77,0.00,,,0.00,290,weatherlink.com 1.10,2013-04-23 19:02:00,
2013-04-23 15:17:00,61.9,56.0,30.15,SSE,148,3.0,8.0,81,0.00,,,0.00,434,weatherlink.com 1.10,2013-04-23 19:17:00,
2013-04-23 15:32:00,62.0,56.0,30.15,ESE,114,5.0,9.0,81,0.00,,,0.00,480,weatherlink.com 1.10,2013-04-23 19:32:00,
2013-04-23 15:47:00,62.2,56.0,30.14,South,171,6.0,11.0,81,0.00,,,0.00,786,weatherlink.com 1.10,2013-04-23 19:47:00,
2013-04-23 16:02:00,62.7,56.0,30.14,SE,128,2.0,10.0,80,0.00,,,0.00,726,weatherlink.com 1.10,2013-04-23 20:02:00,
2013-04-23 16:17:00,62.1,56.0,30.13,SE,125,8.0,11.0,81,0.00,,,0.00,703,weatherlink.com 1.10,2013-04-23 20:17:00,
2013-04-23 16:32:00,62.4,56.0,30.13,SSE,161,9.0,10.0,80,0.00,,,0.00,652,weatherlink.com 1.10,2013-04-23 20:32:00,
2013-04-23 16:47:00,61.5,56.0,30.13,SE,145,5.0,10.0,81,0.00,,,0.00,580,weatherlink.com 1.10,2013-04-23 20:47:00,
2013-04-23 17:02:00,61.7,56.0,30.13,SSE,149,3.0,11.0,81,0.00,,,0.00,540,weatherlink.com 1.10,2013-04-23 21:02:00,
2013-04-23 17:17:00,62.4,56.0,30.13,SE,125,1.0,8.0,80,0.00,,,0.00,476,weatherlink.com 1.10,2013-04-23 21:17:00,
2013-04-23 17:32:00,62.0,56.0,30.13,SSE,166,5.0,10.0,81,0.00,,,0.00,424,weatherlink.com 1.10,2013-04-23 21:32:00,
2013-04-23 17:47:00,61.5,56.0,30.13,SE,140,3.0,11.0,82,0.00,,,0.00,374,weatherlink.com 1.10,2013-04-23 21:47:00,
2013-04-23 18:02:00,61.7,57.0,30.12,SSE,165,8.0,9.0,83,0.00,,,0.00,323,weatherlink.com 1.10,2013-04-23 22:02:00,
2013-04-23 18:17:00,62.1,57.0,30.12,ESE,118,3.0,8.0,83,0.00,,,0.00,72,weatherlink.com 1.10,2013-04-23 22:17:00,
2013-04-23 18:32:00,62.3,57.0,30.12,SSE,166,4.0,7.0,82,0.00,,,0.00,165,weatherlink.com 1.10,2013-04-23 22:32:00,
2013-04-23 18:47:00,62.1,57.0,30.12,SSE,159,1.0,6.0,82,0.00,,,0.00,165,weatherlink.com 1.10,2013-04-23 22:47:00,
2013-04-23 19:02:00,62.4,57.0,30.12,SE,134,3.0,4.0,82,0.00,,,0.00,114,weatherlink.com 1.10,2013-04-23 23:02:00,
2013-04-23 19:17:00,62.2,57.0,30.12,SE,139,2.0,6.0,82,0.00,,,0.00,67,weatherlink.com 1.10,2013-04-23 23:17:00,
2013-04-23 19:32:00,61.8,57.0,30.12,East,100,3.0,5.0,83,0.00,,,0.00,32,weatherlink.com 1.10,2013-04-23 23:32:00,
2013-04-23 19:47:00,61.3,57.0,30.12,ESE,121,4.0,5.0,85,0.00,,,0.00,12,weatherlink.com 1.10,2013-04-23 23:47:00,
2013-04-23 20:02:00,60.6,56.0,30.12,SE,128,2.0,5.0,86,0.00,,,0.00,0,weatherlink.com 1.10,2013-04-24 00:02:00,
2013-04-23 20:17:00,60.2,56.0,30.13,SE,137,0.0,4.0,87,0.00,,,0.00,0,weatherlink.com 1.10,2013-04-24 00:17:00,
2013-04-23 20:32:00,60.0,57.0,30.13,SE,134,0.0,4.0,88,0.00,,,0.00,0,weatherlink.com 1.10,2013-04-24 00:32:00,
2013-04-23 20:47:00,59.9,56.0,30.13,ESE,120,0.0,6.0,88,0.00,,,0.00,0,weatherlink.com 1.10,2013-04-24 00:47:00,
2013-04-23 21:02:00,59.8,57.0,30.14,SE,124,5.0,5.0,89,0.00,,,0.00,0,weatherlink.com 1.10,2013-04-24 01:02:00,
2013-04-23 21:17:00,60.1,57.0,30.14,ESE,114,1.0,4.0,89,0.00,,,0.00,0,weatherlink.com 1.10,2013-04-24 01:17:00,
2013-04-23 21:32:00,60.1,57.0,30.14,SE,141,0.0,5.0,89,0.00,,,0.00,0,weatherlink.com 1.10,2013-04-24 01:32:00,
2013-04-23 21:47:00,60.4,57.0,30.15,East,90,1.0,6.0,88,0.00,,,0.00,0,weatherlink.com 1.10,2013-04-24 01:47:00,
2013-04-23 22:02:00,60.4,57.0,30.15,SE,143,1.0,4.0,88,0.00,,,0.00,0,weatherlink.com 1.10,2013-04-24 02:02:00,
2013-04-23 22:17:00,60.5,57.0,30.16,ESE,104,1.0,3.0,88,0.00,,,0.00,0,weatherlink.com 1.10,2013-04-24 02:17:00,
2013-04-23 22:32:00,60.4,57.0,30.16,SE,130,1.0,4.0,88,0.00,,,0.00,0,weatherlink.com 1.10,2013-04-24 02:32:00,
2013-04-23 22:47:00,60.3,57.0,30.16,ESE,112,1.0,3.0,88,0.00,,,0.00,0,weatherlink.com 1.10,2013-04-24 02:47:00,
2013-04-23 23:17:00,59.9,57.0,30.16,ESE,111,0.0,1.0,89,0.00,,,0.00,0,weatherlink.com 1.10,2013-04-24 03:17:00,
2013-04-23 23:32:00,59.8,57.0,30.16,ESE,112,1.0,3.0,89,0.00,,,0.00,0,weatherlink.com 1.10,2013-04-24 03:32:00,